Find Starlink 31368

NORAD ID: 58970 Int'l Des: 2024-031 Owner: SPXS Country: US Constellation: starlink operational
LEOCIRCULAR

Current View

Loading 3D Globe...

About Starlink 31368

Starlink 31368 (NORAD 58970) is a starlink constellation satellite (v2 mini) launched Feb 15, 2024 by SPXS of US. It operates in LEO, CIRCULAR orbit with a mass of 730.00 kg.

About Starlink 31368

Description loading...

Upcoming Passes

Passes for default location (London). Set your location on the main map for personalized predictions.

Altitude History

Loading altitude history...

Two-Line Element Set

1 58970U 24031F 26170.36330880 -.00000355 00000-0 12214-6 0 9996
2 58970 53.1593 184.1706 0001088 87.1970 272.9155 15.30185307132104
Epoch: Jun 19, 2026 • Age: 12 hours

Current Status

Altitude 475.9 km
Velocity 7.63 km/s
Sub-Earth Point 25.56°N, 127.97°E
Launch Date Feb 15, 2024
Age 2.3 years
Type internet

Technical Details

Classification Payload
Mass 730.00 kg
Dry Mass 700.00 kg
Total Mass 730.00 kg
Length 0.30 m
Diameter 4.10 m
Span 29.00 m
Shape Box + pan
Manufacturer SPXS
Bus Type Starlink V2M
Phase Status In Orbit
Owner/State SPXS/US

Most Searched